Location: Stull Observatory
(42.2506°N, 77.7903°W)
Time: 22:11:10
(UTC-04:00)

Okean O Rocket - Visible Passes

Search period start: 26 June 2016 00:00
Search period end: 06 July 2016 00:00
Orbit: 623 x 646 km, 98.1° (Epoch: 26 June)

Date Brightness Start Highest point End Pass type
(mag) Time Alt. Az. Time Alt. Az. Time Alt. Az.
26 Jun 4.4 03:24:11 10° ENE 03:25:22 11° E 03:26:32 10° ESE visible
26 Jun 1.6 04:57:52 10° N 05:02:12 68° WNW 05:06:30 10° SSW visible
27 Jun 3.9 03:44:14 10° NE 03:47:20 19° E 03:50:25 10° SE visible
28 Jun 3.2 04:05:20 10° NNE 04:09:14 31° E 04:13:07 10° SSE visible
29 Jun 2.2 04:26:48 10° NNE 04:31:04 54° E 04:35:19 10° S visible
30 Jun 1.6 04:48:28 10° NNE 04:52:50 86° WNW 04:57:11 10° SSW visible
01 Jul 4.1 03:35:21 10° NE 03:37:52 15° E 03:40:22 10° SE visible
02 Jul 3.5 03:56:11 10° NE 03:59:48 25° E 04:03:23 10° SSE visible
03 Jul 2.7 04:17:30 10° NNE 04:21:39 42° E 04:25:47 10° S visible
04 Jul 1.8 04:39:05 10° NNE 04:43:27 75° ESE 04:47:47 10° S visible
05 Jul 4.3 03:26:48 10° ENE 03:28:22 12° E 03:29:57 10° ESE visible
05 Jul 1.7 05:00:52 10° N 05:05:10 63° WNW 05:09:28 10° SSW visible
